Location: Newark
(0.4500°S, 90.2667°W)
Time: 23:21:55
(UTC+00:00)

ISS - Visible Passes

Search period start: 08 December 2019 00:00
Search period end: 18 December 2019 00:00
Orbit: 411 x 421 km, 51.6° (Epoch: 08 December)

Date Brightness Start Highest point End Pass type
(mag) Time Alt. Az. Time Alt. Az. Time Alt. Az.
13 Dec -1.9 01:21:59 10° NNW 01:23:13 21° NNW 01:23:13 21° NNW visible
14 Dec -2.7 00:34:01 10° N 00:36:49 25° NE 00:39:38 10° ESE visible
14 Dec -0.2 02:12:46 10° WSW 02:13:22 10° SW 02:13:59 10° SW visible
15 Dec -1.2 01:22:06 10° WNW 01:24:50 23° SW 01:27:34 10° S visible
16 Dec -3.0 00:33:01 10° NW 00:36:19 56° SW 00:39:37 10° SSE visible
17 Dec -1.9 11:20:19 10° SSW 11:23:24 36° SE 11:26:29 10° ENE visible
